sat.trackr.live / text

‹ back to catalog

STARLINK-32427

NORAD 61848 · 2024-202D

PAYLOAD ACTIVE UNKNOWN

§ Identity

Operator
Country
US
Launch date
2024-11-07
Launch site
AFETR
Launch vehicle
Mass (kg)
RCS (m²)

Purposes: comms

External: N2YO · Heavens-Above · Gunter

§ Orbital elements

Epoch: 2026-09-21T21:35:22.893792Z

Period
94.27 min
Inclination
43.0011°
Eccentricity
0.0001335
Mean motion
15.27574647 rev/d
Perigee alt
482.1 km
Apogee alt
484.0 km
Semi-major
6,861.2 km
B*
4.5503e-5
RAAN
198.8052°
Arg perigee
276.1965°
Mean anomaly
83.8734°
Rev number
10,546

§ Raw data

STARLINK-324271 61848U 24202D   26264.89957053  .00000990  00000+0  45503-4 0  99912 61848  43.0011 198.8052 0001335 276.1965  83.8734 15.27574647105466

JSON: /api/v1/satellites/61848 · /tle

For live sub-satellite position, see the globe view (requires WebGL).

§ Visibility from observer

Set your observer location to see the next 7 days of passes ≥ 10°. The values pass through the URL so the page stays shareable.

No JS? Fill the form by hand. The geolocation button needs JavaScript.